DMSP 5D-2 F11 DEB, 29077

Orbit data source: Space-Track

DMSP 5D-2 F11 DEB, 29077 is space debris in SSO originally from a launch on Thu, 28 Nov 1991 UTC launched from the Air Force Western Test Range (AFWTR). Debris objects in space refer to the collection of defunct objects orbiting the Earth. Examples of debris include non-operational satellites, rocket bodies, and fragments generated from explosions, collisions, or faulty payload assembly.

Loading next visibility...
Identifier
29077, 1991-082BY
Orbit
SSO
Country
Flag of USUS
Related business
Manufacturer
Unknown
Mission
Spacecraft
Bus & Motor
Unknown
Mass
Unknown
Launch date (UTC)
1991-11-28 (35 years ago)
Launch vehicle
Unknown
Launch site
Air Force Western Test Range (AFWTR)
Object type
Payload
Rocket body
Debris
Shape & HBR
Unknown shape, 0.1 m
Radar Cross Section
Small (<0.1 m²)

Expand to show TLE details & history
Last TLE update: 23 hours ago

TLE from 23 hours ago
0 DMSP 5D-2 F11 DEB
1 29077U 91082BY  26208.36121648  .00012238  00000-0  26631-2 0  9990
2 29077  98.6954   0.1325 0048417  49.4323 311.1074 14.57392001132148
Epoch: 2026-07-27T08:40Z
TLE epoch observation values (Epoch: 2026-07-27T08:40:09.103Z)
Latitude
0.00001°
Longitude
-74.95133°
Altitude
682.127 km
Speed
7.527 km/s
True Right ascension
00h 00m 31s
True Declination
0° 00' 00"
Sunlit
Object was in full shadow at epoch
Visualization orbit readout
Latitude
Unknown
Longitude
Unknown
Altitude
Unknown
Speed
Unknown
Apparent Right ascension
Unknown
Apparent Declination
Unknown
Sunlit
N/A
Visualization observer readout
Local Sidereal Time
20:40:58
Azimuth
Unknown
Elevation
Unknown
Doppler factor
Unknown
Orbital elements
Apogee altitude
732.98 km
Perigee altitude
664.452 km
Semi-major axis
7,076.853 km
Eccentricity
0.00484
Inclination
98.6954°
RAAN
0.1325°
Arg. of periapsis
49.4323°
True anomaly
310.68769°
Mean anomaly
311.1074°
Eccentric anomaly
310.89771°
Mean motion
3.64572 °/min
Orbital period
98.75 mins
BSTAR
0.0026631
Loading maneuver chart data...
Computing Atmospheric mass density...

Documentation

Showing up to 5 results
|